Погода в Токтарсола

Россия / Республика Марий Эл     56°55′11″N   48°43′22″E
темп.,
°C
ветер,
м/с
пор.,
м/с
влажн.,
%
обл.,
%
осадки,
мм/ч
давл.,
гПа
погр.,
м
13 мая, чт
чт1300:00+15ююз34675 0.0 102560
03:00+14в116817 0.0 102610
06:00+17в246870 0.0 1026121
09:00+22юв465134 0.0 1025567
12:00+24ююв6735100 0.0 10241771
15:00+24ююв684197 0.0 10231529
18:00+21вюв3861100 0.1 1022230
21:00+20юв6135999 0.1 1021403
14 мая, пт
пт1400:00+18ююв6156479 0.0 1020391
03:00+15ююв41182100 0.4 1020203
06:00+17ююз497671 0.0 1020312
09:00+20ююз4565100 0.0 1021554
12:00+23юз4656100 0.0 10211287
15:00+24юз4650100 0.0 10201546
18:00+23ююз35645 0.0 1019165
21:00+18ю3378100 0.1 101930
15 мая, сб
сб1500:00+17ю3677100 0.0 1019104
03:00+16ю3678100 0.0 1019104
06:00+18ю3775100 0.0 1019176
09:00+23ю5853100 0.0 1018451
12:00+26ююз7939100 0.0 1018821
15:00+27ююз71141100 0.0 10171294
18:00+23ю61255100 0.0 1016340
21:00+19ю6155817 0.0 1016295
16 мая, вс
вс1600:00+16ююз515645 0.0 1016278
03:00+15ю4116610 0.0 1016156
06:00+17ю5126395 0.0 1016279
09:00+22ююз71151100 0.0 1016604
12:00+26юз71142100 0.0 10161290
15:00+26юз61046100 0.0 10151758
18:00+23юз5105837 0.0 1014330
21:00+18зюз337436 0.0 101540
17 мая, пн
пн1700:00+16зюз3387100 0.6 101638
03:00+16зюз35895 0.6 1016113
06:00+18зюз35825 0.0 1017196
09:00+22з466251 0.0 1018766
12:00+24з574744 0.0 10181337
15:00+25зсз45415 0.0 10181417
18:00+23ссз235556 0.0 101889
21:00+18ссв2265100 0.0 101811